Location: Mentone
(34.5413°N, 85.5351°W)
Time: 20:08:44
(UTC-05:00)

Centaur AC-72 - Visible Passes

Search period start: 26 August 2016 00:00
Search period end: 05 September 2016 00:00
Orbit: 1094 x 35263 km, 19.6° (Epoch: 25 August)

Date Brightness Start Highest point End Pass type
(mag) Time Alt. Az. Time Alt. Az. Time Alt. Az.
26 Aug 5.3 04:44:05 11° SSW 04:55:03 37° SE 14:07:39 10° SE visible
28 Aug 7.1 10:13:26 10° W 11:42:15 62° SW 19:41:30 10° SSW visible
30 Aug 5.2 04:29:14 15° SSW 04:38:59 37° SE 13:50:10 10° SE visible
01 Sep 7.0 09:57:31 10° W 11:23:32 62° SSW 19:26:07 10° SSW visible
03 Sep 5.2 04:14:25 19° SSW 04:22:56 37° SE 13:32:34 10° SE visible
